Temperature
20 21 20 20 20 19 19 19 19 19 19 19 19 19 19 19 19 19 19 19 19 19 19 19 19 19 19 19 19 19 19 19 19 19 19 18 18 18 18 18 18 18 18
20 21 20 20 19 19 19 19 19 19 19 19 19 19 19 19 19 19 19 19 19 19 19 19 19 19 18 19 19 19 19 19 19 19 18 18 18 18 18 18 18 18 18
21 21 20 20 20 19 19 19 19 19 19 19 19 19 19 19 19 19 19 19 19 19 19 19 19 19 18 19 19 19 19 19 19 18 18 18 18 18 18 18 18 18 18
21 20 20 20 20 19 19 19 19 19 19 19 19 19 19 19 19 19 19 19 19 19 19 19 19 19 19 19 19 19 19 18 18 18 18 18 18 18 18 18 18 18 18
21 21 21 20 20 19 19 19 19 19 19 19 19 19 19 19 19 19 19 19 19 19 19 19 19 19 19 18 18 19 18 18 18 18 18 18 18 18 18 18 18 18 18
21 21 21 20 20 19 19 19 19 19 19 19 19 19 19 19 19 19 19 19 19 19 19 19 19 19 19 19 19 19 19 18 18 18 18 18 18 18 18 18 18 18 18
21 21 21 21 20 20 19 19 19 19 19 19 19 19 19 19 19 19 19 19 19 19 19 19 19 19 19 19 19 19 19 19 19 18 18 18 18 18 18 18 18 18 18
21 21 21 21 20 20 20 19 19 19 19 19 19 19 19 19 19 19 19 19 19 19 19 19 19 19 19 19 19 19 19 19 19 18 18 18 18 18 18 18 18 18 18
22 21 21 21 20 20 20 20 19 19 19 19 19 19 19 19 19 19 19 19 19 19 19 19 19 19 19 19 19 19 19 19 19 19 18 19 19 19 18 18 18 18 18
22 21 21 20 20 20 20 20 20 20 19 19 19 19 19 19 19 19 19 19 19 19 19 19 19 19 19 19 19 19 19 19 19 19 19 19 19 19 19 18 18 18 18
22 22 21 20 20 20 20 20 20 20 19 19 19 19 19 19 19 19 19 19 19 19 19 19 19 19 19 19 19 19 19 19 19 19 19 19 19 19 19 19 18 18 18
22 22 22 21 21 20 20 20 20 20 19 19 19 19 19 19 19 19 19 19 19 19 19 19 19 19 19 19 19 19 19 19 19 19 19 19 19 19 19 19 18 18 18
22 22 22 21 21 21 20 20 20 20 20 19 19 19 19 19 19 19 19 19 19 19 19 19 19 19 19 19 19 19 19 19 19 19 19 19 19 19 19 19 19 18 18
23 22 22 21 21 21 20 20 20 20 20 19 19 19 19 19 19 19 19 19 19 19 19 19 19 19 19 19 19 19 19 19 19 19 19 19 19 19 19 19 19 18 18
23 22 22 21 21 21 20 20 20 20 20 20 19 19 19 19 19 19 19 19 19 19 19 19 19 19 19 19 19 19 19 19 19 19 19 19 19 19 19 19 19 18 18
22 22 21 21 21 21 20 20 20 20 20 20 19 19 19 19 19 19 19 19 19 19 19 19 19 19 19 19 19 19 19 19 19 19 19 19 19 19 19 19 18 18 18
22 22 21 21 21 20 20 20 20 20 20 20 20 19 19 19 19 19 19 19 19 19 19 19 19 19 19 19 19 19 19 19 19 19 19 19 19 18 18 18 18 18 18
23 22 21 21 21 21 20 20 20 20 20 20 20 19 19 19 19 19 19 19 19 19 19 19 19 19 19 19 19 19 19 19 19 19 19 19 19 18 18 18 18 18 18
22 22 21 21 21 21 20 20 20 20 20 20 20 20 20 20 20 19 19 19 19 19 19 19 19 19 19 19 19 19 19 19 19 19 19 19 19 18 18 18 18 18 18
22 22 21 21 21 21 20 20 20 20 20 20 20 20 20 20 20 20 19 19 19 19 19 19 19 19 19 19 19 19 20 20 19 19 19 19 19 18 18 18 18 18 18
22 22 21 21 21 20 20 20 20 20 20 20 20 20 19 19 19 19 19 19 19 19 19 19 19 19 19 19 19 19 19 20 20 19 19 19 19 18 18 18 18 18 18
22 22 21 21 21 21 20 20 20 20 20 20 20 19 19 19 19 19 19 19 19 19 19 19 19 19 19 19 19 19 19 19 20 19 19 19 19 18 18 18 18 18 17
23 22 21 21 21 21 21 20 20 20 20 20 19 19 19 19 19 19 19 19 19 19 19 19 19 18 18 19 19 19 19 19 19 19 19 19 19 18 18 18 18 18 17
23 22 22 21 21 21 20 20 20 20 20 19 19 19 19 19 19 19 19 19 19 19 18 18 18 18 18 18 18 18 19 19 18 18 19 19 19 18 18 18 17 17 17
23 22 22 21 21 21 20 20 20 19 19 19 19 19 19 19 19 19 18 18 18 18 18 18 18 18 18 18 18 18 18 18 18 18 18 18 18 18 18 18 18 17 17
23 23 22 21 21 20 20 20 19 19 19 19 19 19 19 19 19 19 18 18 18 18 18 18 18 18 18 18 18 18 18 18 18 18 18 18 18 18 18 18 18 17 17
Wind_Speed
11 13 12 11 11 10 10 12 13 12 12 12 11 10 9 9 10 10 9 8 8 7 7 7 6 6 6 5 5 4 5 5 6 6 6 6 6 5 5 5 5 5 7
14 13 13 12 11 12 13 14 14 12 12 11 11 10 9 9 9 8 8 7 7 7 7 6 5 5 6 5 4 4 5 5 6 6 7 6 6 6 5 4 4 5 7
15 14 13 12 12 12 12 13 13 12 12 11 10 9 8 8 8 7 7 7 6 6 5 5 5 5 5 5 5 5 5 5 6 6 7 7 7 8 7 6 6 6 6
14 14 13 13 12 12 12 12 12 12 11 11 10 9 8 7 6 6 6 6 6 5 5 5 5 4 4 5 5 5 5 6 6 7 7 7 7 8 9 8 7 7 7
14 15 14 13 12 12 12 11 11 11 11 10 9 7 7 6 6 6 5 5 5 5 5 5 5 4 4 5 5 5 5 7 7 8 6 5 5 9 9 9 8 8 7
15 15 15 14 13 12 12 11 11 11 10 9 8 7 6 6 6 5 5 5 5 5 5 6 5 5 5 5 5 5 6 7 8 7 6 5 6 9 10 9 8 8 7
15 15 14 14 13 12 12 11 10 10 10 9 7 7 6 5 5 5 4 4 4 5 5 6 6 6 6 6 6 7 7 8 10 6 5 5 7 10 11 10 9 8 8
15 15 14 14 13 12 12 11 10 10 9 8 7 6 6 5 5 5 4 4 5 5 5 6 7 7 7 7 8 8 9 10 8 6 6 5 8 9 11 10 9 8 8
14 14 13 13 12 12 12 11 10 10 8 8 7 6 6 5 5 5 5 4 5 6 6 7 7 8 8 8 8 9 11 11 9 4 3 5 7 8 9 9 8 8 8
12 12 12 12 12 11 12 11 10 10 8 8 7 6 5 5 6 7 6 6 5 5 6 7 8 9 10 10 10 11 12 11 9 5 3 6 9 9 9 9 8 8 8
8 9 9 11 10 10 11 11 10 10 9 7 6 6 5 5 6 7 7 8 6 7 8 9 10 11 11 11 13 13 12 9 7 3 4 8 10 10 9 8 7 7 7
7 7 8 7 7 8 8 9 8 8 9 7 6 6 6 5 4 4 8 9 8 8 9 11 12 11 10 9 11 13 8 7 5 3 5 9 10 11 9 8 6 6 7
6 6 8 7 6 6 5 5 4 5 6 6 6 4 4 3 4 4 5 6 7 8 7 8 9 7 7 6 5 6 6 4 3 4 6 8 10 11 9 8 7 7 7
7 7 8 7 6 4 4 3 4 3 4 3 4 3 2 1 1 1 1 2 4 4 4 3 4 5 4 4 4 4 3 2 2 4 7 8 9 10 10 10 9 9 8
6 7 8 7 6 4 3 0 3 3 3 4 4 3 2 1 0 0 0 1 1 2 2 2 2 2 2 3 3 2 2 2 1 4 6 8 10 11 11 11 11 10 10
6 7 8 7 7 4 3 1 1 2 2 2 3 3 3 1 1 0 1 1 1 1 0 1 2 2 2 2 2 2 3 3 2 3 6 7 10 10 10 11 11 11 11
7 8 7 7 7 5 3 2 2 1 3 2 3 3 1 1 0 1 1 1 1 2 1 2 2 1 2 2 2 3 3 3 3 3 5 6 7 9 10 11 11 11 10
8 8 6 6 7 5 3 1 1 1 2 2 2 2 1 1 0 1 1 0 1 1 1 1 1 1 1 2 2 3 3 3 4 4 5 6 7 7 9 11 10 10 10
8 8 6 5 7 6 4 3 1 1 1 1 1 2 2 1 0 1 1 1 2 1 1 2 0 1 2 2 3 3 2 2 4 4 4 5 6 7 7 9 10 10 9
8 8 7 5 5 5 4 3 2 2 1 1 1 2 1 1 1 2 1 1 2 0 0 1 1 2 2 2 4 2 2 3 3 4 4 3 4 6 7 7 7 7 9
8 8 7 6 5 3 3 3 2 2 2 1 1 2 1 0 1 1 2 0 2 1 0 1 1 2 2 1 2 3 2 3 3 3 3 2 2 3 4 5 6 5 5
10 9 7 6 6 5 3 2 1 1 1 1 1 2 1 0 2 1 1 2 2 1 1 1 2 1 2 1 1 2 2 1 1 2 2 3 3 2 3 4 4 5 5
10 10 9 7 6 6 4 3 1 1 0 0 1 1 1 1 2 2 1 2 3 2 1 2 2 2 2 2 1 1 1 1 2 1 1 2 2 2 3 3 4 5 5
10 10 8 7 6 6 5 3 3 2 1 1 1 1 1 1 1 0 1 1 2 3 2 2 1 2 2 3 2 1 1 1 1 2 1 0 1 2 2 2 2 3 4
9 10 9 8 6 6 5 4 3 2 1 1 1 1 1 1 1 0 0 1 1 2 3 4 3 2 2 3 3 2 2 1 2 2 2 2 2 2 2 3 2 3 4
8 8 9 8 7 6 5 4 3 2 1 0 0 0 1 1 1 0 0 0 1 1 2 3 3 2 3 3 3 3 3 2 2 2 3 3 3 2 2 2 2 2 3
Wind_Direction
100 103 101 98 98 95 97 110 118 118 118 116 114 111 107 114 112 110 110 112 115 118 121 130 134 140 143 145 145 138 143 154 161 157 155 153 149 148 150 152 153 130 135
106 105 104 99 98 97 99 107 114 117 119 120 120 116 111 112 114 114 111 115 122 125 128 127 129 138 142 146 156 161 165 166 169 173 173 173 171 169 171 168 159 141 142
109 112 107 102 100 102 104 107 111 115 119 122 122 120 118 117 119 120 124 125 128 132 131 136 134 131 136 151 169 179 185 188 194 196 196 193 179 180 178 169 160 158 159
112 111 107 107 103 105 109 110 111 113 118 121 124 126 125 124 126 128 135 141 141 145 147 149 144 145 149 158 169 182 197 207 217 221 214 209 190 180 181 177 176 177 177
111 111 111 111 109 109 112 111 112 114 116 119 122 126 129 131 135 138 142 148 151 157 163 163 160 167 168 173 181 193 213 225 230 240 221 196 172 171 178 179 180 185 189
112 111 116 115 114 115 115 114 115 116 117 120 123 126 128 132 137 141 143 154 165 169 175 181 177 183 186 191 205 216 227 239 247 233 209 184 169 172 174 178 182 190 197
113 115 118 120 118 118 117 119 120 121 122 123 125 126 126 133 142 150 155 162 173 178 182 181 189 201 206 210 221 232 240 248 248 226 205 182 170 175 177 182 185 192 198
116 116 122 127 127 125 124 125 127 128 128 129 132 135 137 147 153 163 172 176 185 188 189 191 199 208 213 218 228 237 244 255 248 222 192 176 170 174 177 180 185 192 200
118 123 131 135 136 136 135 136 136 136 139 142 144 148 155 164 170 175 182 181 188 196 199 202 207 212 215 219 228 239 244 251 263 245 192 165 175 178 178 180 187 196 204
119 129 136 139 144 147 146 152 153 151 156 157 161 164 173 183 188 187 187 186 194 203 215 217 218 221 224 225 229 237 243 253 246 228 157 161 165 175 179 181 189 197 205
111 121 129 137 147 151 149 150 159 159 164 167 172 180 189 201 190 191 178 178 196 212 221 225 227 228 228 231 232 234 241 242 232 194 147 155 158 162 170 180 190 201 209
117 126 121 125 132 137 140 147 163 162 164 177 172 184 201 210 205 179 169 188 201 214 226 228 230 232 229 228 228 229 238 234 227 178 157 163 163 167 170 177 187 201 212
131 121 116 111 109 118 122 144 154 154 156 173 171 189 206 218 205 181 183 195 209 217 226 222 221 227 226 223 214 209 227 234 209 158 159 167 172 175 179 186 193 202 209
138 126 115 112 103 95 109 137 153 146 153 158 165 201 206 217 260 168 187 206 211 214 213 212 210 220 230 235 220 218 225 226 185 139 162 171 175 183 189 195 201 205 207
127 118 107 112 105 99 86 83 125 138 143 153 157 174 237 205 214 161 105 269 248 219 194 214 219 226 236 234 237 228 246 253 219 147 166 179 183 190 197 203 206 207 211
137 123 117 117 109 106 116 109 97 105 125 137 136 145 220 194 128 213 205 257 288 276 180 255 245 219 227 234 217 224 227 226 219 169 173 186 193 197 201 206 210 212 214
142 127 126 127 124 125 128 151 126 135 135 120 121 131 180 148 145 258 244 233 285 283 221 243 272 253 234 236 224 223 224 212 193 185 180 184 193 202 204 205 210 215 218
132 127 136 142 131 130 124 101 77 90 90 104 124 124 126 99 206 264 258 236 274 274 230 226 252 269 284 265 247 235 219 200 185 193 198 196 193 198 203 207 210 215 219
134 133 136 133 135 140 143 147 156 70 62 87 115 117 127 137 204 253 253 252 264 243 278 279 171 282 273 273 264 232 214 201 196 203 202 197 197 189 191 198 203 208 215
140 138 141 146 137 141 148 155 163 151 169 197 138 112 121 203 287 296 229 219 286 259 291 319 300 269 257 267 287 283 238 212 197 193 198 199 189 192 191 183 188 204 212
148 147 152 157 149 152 161 167 166 175 191 179 176 126 127 317 315 317 327 236 277 301 333 311 292 284 272 253 291 297 261 217 201 186 183 189 191 188 179 171 174 179 186
153 154 156 158 156 165 168 166 172 169 193 178 164 120 132 344 316 286 285 306 287 272 250 276 282 282 280 263 281 297 295 276 289 204 172 182 194 180 175 179 175 168 175
161 162 168 164 162 167 165 166 166 142 266 93 117 121 163 225 238 297 344 307 316 308 273 247 274 275 289 287 264 270 286 300 315 263 216 193 171 190 188 172 171 168 174
165 164 159 155 159 163 168 171 183 179 188 214 199 174 197 215 235 205 331 318 315 325 325 284 281 284 286 283 284 282 270 296 291 297 285 229 194 201 186 197 184 165 154
165 162 155 152 153 158 175 173 188 194 197 213 207 161 226 210 199 323 139 273 298 309 319 320 334 320 312 308 307 306 295 271 249 248 282 284 253 225 200 205 179 173 161
160 155 149 147 153 159 168 170 182 191 185 246 242 202 251 235 198 249 166 224 284 289 296 304 307 311 306 309 314 312 298 283 272 251 259 271 266 236 209 209 195 180 163
Height
1497 1497 1497 1497 1497 1495 1491 1489 1495 1501 1504 1506 1509 1511 1512 1514 1515 1517 1518 1520 1521 1523 1524 1525 1527 1528 1529 1530 1532 1533 1534 1535 1536 1537 1539 1540 1541 1541 1542 1543 1543 1544 1545
1497 1498 1498 1498 1498 1498 1497 1497 1500 1504 1506 1508 1510 1512 1513 1515 1516 1518 1520 1521 1522 1523 1524 1526 1527 1528 1529 1530 1532 1533 1534 1535 1536 1537 1538 1539 1540 1541 1542 1543 1543 1544 1545
1498 1499 1499 1499 1500 1501 1501 1502 1504 1506 1508 1509 1511 1513 1515 1516 1518 1519 1520 1521 1523 1524 1525 1526 1527 1528 1529 1530 1531 1533 1534 1535 1536 1537 1538 1539 1540 1541 1541 1542 1543 1543 1544
1500 1500 1500 1501 1502 1502 1503 1505 1506 1508 1509 1511 1513 1514 1516 1517 1519 1520 1521 1522 1523 1524 1525 1526 1527 1528 1529 1530 1531 1532 1534 1535 1536 1536 1537 1538 1539 1540 1540 1541 1542 1543 1544
1501 1501 1502 1502 1503 1504 1505 1506 1508 1509 1511 1512 1514 1515 1517 1518 1519 1520 1521 1522 1523 1524 1525 1526 1527 1528 1529 1530 1531 1532 1534 1535 1535 1536 1537 1538 1538 1539 1539 1540 1541 1542 1543
1503 1503 1503 1504 1504 1505 1507 1508 1509 1510 1512 1513 1515 1516 1517 1518 1519 1520 1521 1522 1523 1524 1525 1526 1527 1528 1529 1530 1531 1532 1533 1534 1535 1536 1537 1537 1538 1538 1538 1539 1540 1541 1542
1505 1505 1505 1506 1506 1507 1508 1509 1510 1512 1513 1514 1516 1517 1518 1519 1520 1521 1522 1522 1523 1524 1525 1525 1527 1528 1529 1530 1531 1532 1533 1534 1535 1536 1536 1537 1537 1537 1538 1538 1539 1540 1540
1506 1506 1507 1507 1508 1509 1510 1511 1512 1513 1514 1515 1517 1518 1519 1520 1521 1521 1522 1523 1523 1524 1525 1525 1526 1527 1528 1529 1530 1531 1532 1533 1534 1535 1535 1535 1535 1536 1536 1537 1537 1538 1539
1507 1508 1508 1509 1510 1510 1511 1512 1513 1514 1515 1516 1518 1519 1520 1520 1521 1522 1522 1523 1523 1523 1524 1525 1526 1527 1528 1528 1529 1530 1531 1532 1533 1534 1534 1534 1534 1534 1535 1535 1536 1537 1537
1509 1509 1510 1510 1511 1512 1513 1514 1515 1516 1516 1517 1518 1519 1520 1521 1522 1522 1522 1523 1523 1523 1524 1524 1525 1526 1527 1528 1529 1530 1530 1531 1532 1532 1531 1532 1532 1533 1533 1533 1534 1535 1535
1511 1511 1512 1512 1512 1513 1514 1515 1516 1517 1517 1518 1519 1520 1521 1521 1522 1522 1523 1523 1523 1523 1523 1524 1524 1525 1526 1527 1528 1529 1529 1529 1530 1530 1530 1530 1531 1531 1531 1532 1532 1533 1534
1511 1512 1513 1514 1514 1515 1516 1516 1517 1518 1518 1519 1520 1520 1521 1522 1523 1523 1523 1523 1523 1523 1522 1523 1523 1524 1525 1525 1527 1528 1528 1529 1529 1529 1529 1529 1529 1530 1530 1530 1531 1531 1532
1511 1513 1513 1514 1515 1516 1517 1517 1518 1519 1519 1520 1520 1521 1521 1522 1523 1523 1523 1523 1522 1522 1522 1522 1522 1523 1524 1525 1526 1527 1527 1528 1528 1527 1527 1527 1527 1528 1528 1528 1529 1529 1529
1511 1513 1513 1514 1515 1516 1517 1518 1519 1519 1520 1520 1520 1521 1522 1522 1523 1523 1523 1522 1522 1522 1522 1522 1522 1523 1524 1524 1525 1526 1526 1526 1527 1526 1526 1526 1525 1526 1526 1527 1527 1527 1528
1511 1513 1513 1514 1515 1516 1517 1518 1519 1520 1520 1521 1521 1521 1521 1522 1522 1522 1522 1522 1522 1522 1522 1523 1523 1523 1523 1523 1524 1524 1524 1525 1525 1524 1524 1524 1524 1524 1525 1525 1526 1526 1526
1511 1512 1513 1514 1514 1515 1516 1517 1519 1520 1520 1521 1521 1521 1521 1522 1522 1522 1522 1522 1522 1522 1522 1522 1522 1522 1522 1523 1523 1523 1523 1523 1523 1523 1523 1523 1523 1523 1524 1524 1524 1524 1524
1510 1511 1512 1513 1514 1515 1516 1517 1518 1519 1520 1521 1521 1521 1521 1521 1521 1522 1522 1522 1522 1522 1522 1522 1522 1521 1521 1521 1521 1521 1521 1521 1521 1522 1521 1521 1521 1521 1522 1522 1522 1522 1522
1509 1510 1512 1514 1514 1515 1516 1517 1518 1519 1520 1521 1521 1521 1521 1521 1521 1521 1521 1521 1521 1521 1521 1521 1520 1520 1520 1520 1520 1520 1520 1520 1519 1519 1519 1519 1519 1519 1520 1520 1520 1520 1520
1508 1510 1511 1513 1513 1514 1515 1516 1517 1518 1519 1520 1520 1520 1520 1521 1521 1521 1521 1521 1521 1520 1520 1520 1520 1519 1519 1519 1519 1518 1518 1518 1518 1518 1518 1518 1518 1518 1518 1518 1518 1518 1518
1508 1509 1511 1512 1513 1514 1515 1516 1517 1518 1519 1519 1520 1520 1520 1520 1520 1520 1520 1520 1520 1520 1519 1519 1519 1518 1518 1518 1518 1517 1517 1516 1516 1516 1516 1516 1516 1516 1516 1515 1515 1515 1515
1506 1508 1509 1511 1512 1513 1514 1515 1516 1517 1518 1519 1519 1519 1519 1519 1519 1519 1519 1519 1519 1519 1518 1518 1518 1517 1517 1517 1516 1516 1515 1515 1515 1514 1514 1514 1514 1514 1514 1514 1513 1513 1513
1505 1506 1508 1509 1511 1512 1513 1515 1516 1517 1517 1518 1518 1518 1518 1518 1518 1519 1518 1518 1518 1518 1517 1517 1517 1516 1516 1517 1516 1515 1515 1515 1514 1513 1513 1513 1512 1512 1512 1512 1511 1511 1510
1503 1504 1506 1508 1509 1511 1512 1514 1515 1516 1517 1518 1518 1517 1517 1517 1517 1517 1517 1516 1516 1516 1516 1516 1515 1515 1515 1515 1515 1515 1515 1513 1513 1512 1512 1511 1511 1511 1510 1510 1509 1509 1508
1501 1503 1505 1506 1508 1509 1511 1513 1514 1514 1515 1516 1517 1517 1517 1517 1516 1516 1515 1515 1515 1515 1514 1514 1514 1514 1514 1514 1514 1514 1514 1513 1512 1511 1511 1510 1509 1509 1508 1508 1507 1507 1506
1500 1501 1503 1504 1506 1508 1509 1511 1512 1513 1514 1515 1516 1516 1516 1516 1515 1514 1514 1514 1513 1513 1513 1513 1513 1512 1512 1512 1512 1512 1512 1511 1511 1510 1509 1508 1508 1507 1506 1506 1505 1504 1504
1499 1500 1502 1503 1505 1506 1508 1509 1510 1511 1512 1513 1514 1514 1514 1514 1514 1513 1513 1512 1512 1511 1511 1511 1511 1510 1510 1510 1509 1509 1510 1509 1509 1508 1507 1506 1506 1506 1505 1504 1503 1503 1502